Location: Buisson
(44.2787°N, 4.9969°E)
Time: 08:07:35
(UTC+00:00)

Cosmos 1842 - Pass Details

Date: 18 April 2021
Orbit: 520 x 536 km, 82.5° (Epoch: 06 May)

Event Time Altitude Azimuth Distance (km) Brightness Sun altitude
Exits shadow 03:49:00 - 189° (S) 2,392 6.2 -11.2°
Reaches altitude 10° 03:50:31 10° 189° (S) 1,763 5.6 -10.9°
Maximum altitude 03:54:24 84° 279° (W) 533 3.2 -10.3°
Drops below altitude 10° 03:58:17 10° 7° (N) 1,770 6.4 -9.7°
Sets 04:00:26 0° 8° (N) 2,661 7.3 -9.3°
